Content
SEND FEEDBACK

Daily
Averages
Monthly
Summary
United States of America

ST. LOUIS, MISSOURI


Home > North America > United States > Missouri
Elevation: 535 feet     Latitude: 38 45N     Longitude: 090 22W

WEATHER
 
SELECT A DAY
Number of Records: 199,017;   Date Range: 1/1/95 - 10/1/14
 
SHARE

PRINT THIS DATA

[ ← Previous Day ]
WEATHER ALMANAC - JANUARY 24, 2013
[ Next Day → ]
[ °C ]   °F
Weather ElementAverageHighLow
Temperature22.3 °F27 °F (11:54 pm)15.1 °F (6:54 am)
Dewpoint5.4 °F10 °F (10:54 pm) (7:00 pm)
Humidity49.2 %65 % (7:54 am)38 % (11:54 am)
Barometer30.48 in30.63 in (10:54 am)30.27 in (11:54 pm)
Wind Speed10.7 mph15 mph (3:54 pm)
Wind Gust19.6 mph (2:54 am)
Weather ElementAverage
Visibility10 mi
Wind DirectionE (92.6 °)

Weather ElementTotal
Precipitation---
Heating Degree Days44 (Base 65)
Averaged from 23 records on January 24, 2013
WEATHER CONDITIONS BREAKOUT
WIND DIRECTION BREAKOUT
WEATHER BY HOUR - JANUARY 24, 2013
[ °C ]   °F
Local TimeTemperatureDewpointHumidityBarometerVisibilityWind DirectionWind SpeedGust SpeedPrecipitationEventsConditions
1:54 AM24.1 °F9.0 °F53 %30.45 in10.0 miNorth (360°)12.7 mphClear
2:54 AM21.0 °F5.0 °F50 %30.49 in10.0 miNorth (10°)13.8 mph19.6 mphClear
3:54 AM19.0 °F3.9 °F52 %30.51 in10.0 miNorth (10°)11.5 mphClear
4:54 AM18.0 °F3.9 °F54 %30.54 in10.0 miNorth (10°)9.2 mph18.4 mphClear
5:54 AM16.0 °F3.9 °F59 %30.57 in10.0 miNNE (20°)10.4 mphClear
6:54 AM15.1 °F5.0 °F64 %30.58 in10.0 miNE (50°)10.4 mphClear
7:54 AM16.0 °F6.1 °F65 %30.59 in10.0 miNE (40°)11.5 mphOvercast
8:54 AM17.1 °F7.0 °F65 %30.60 in10.0 miENE (60°)12.7 mphOvercast
9:54 AM19.0 °F1.0 °F46 %30.62 in10.0 miENE (70°)13.8 mphClear
10:54 AM21.0 °F0.0 °F40 %30.63 in10.0 miEast (80°)10.4 mphClear
11:54 AM21.9 °F0.0 °F38 %30.58 in10.0 miESE (110°)11.5 mphOvercast
12:54 PM23.0 °F1.0 °F39 %30.54 in10.0 miEast (100°)9.2 mphOvercast
1:54 PM24.1 °F3.0 °F40 %30.51 in10.0 miESE (120°)9.2 mphOvercast
2:54 PM25.0 °F3.9 °F41 %30.50 in10.0 miSE (130°)6.9 mphOvercast
3:54 PM25.0 °F6.1 °F45 %30.44 in10.0 miEast (90°)15.0 mph18.4 mphOvercast
4:54 PM25.0 °F7.0 °F46 %30.43 in10.0 miEast (100°)10.4 mphOvercast
5:54 PM25.0 °F7.0 °F46 %30.43 in10.0 miEast (90°)9.2 mphClear
6:54 PM26.1 °F6.1 °F43 %30.41 in10.0 miESE (110°)10.4 mph17.3 mphOvercast
7:54 PM26.1 °F8.1 °F47 %30.40 in10.0 miESE (110°)12.7 mph19.6 mphOvercast
8:54 PM26.1 °F9.0 °F49 %30.36 in10.0 miESE (110°)10.4 mph19.6 mphOvercast
9:54 PM26.1 °F9.0 °F49 %30.34 in10.0 miSE (130°)10.4 mphOvercast
10:54 PM26.1 °F10.0 °F51 %30.30 in10.0 miESE (120°)5.8 mphOvercast
11:54 PM27.0 °F10.0 °F49 %30.27 in10.0 miEast (100°)8.1 mphOvercast
Hourly data recorded from KSUS, located miles away from St. Louis, Missouri







STORIES FROM OUR PARTNERS